TimeEDT,TemperatureF,Dew PointF,Humidity,Sea Level PressureIn,VisibilityMPH,Wind Direction,Wind SpeedMPH,Gust SpeedMPH,PrecipitationIn,Events,Conditions,WindDirDegrees,DateUTC
12:53 AM,42.1,35.1,76,29.75,10.0,Calm,Calm,-,N/A,,Clear,0,2014-03-11 04:53:00
1:53 AM,51.1,36.0,56,29.74,10.0,WSW,4.6,-,N/A,,Clear,250,2014-03-11 05:53:00
2:53 AM,51.1,37.0,59,29.73,10.0,WSW,5.8,-,N/A,,Clear,240,2014-03-11 06:53:00
3:53 AM,53.1,37.9,57,29.73,10.0,WSW,5.8,-,N/A,,Clear,240,2014-03-11 07:53:00
4:53 AM,53.1,39.9,61,29.73,10.0,WSW,4.6,-,N/A,,Clear,240,2014-03-11 08:53:00
5:53 AM,51.1,39.9,66,29.73,10.0,SW,3.5,-,N/A,,Clear,230,2014-03-11 09:53:00
6:53 AM,48.9,39.9,71,29.73,10.0,Calm,Calm,-,N/A,,Clear,0,2014-03-11 10:53:00
7:53 AM,48.9,41.0,74,29.73,10.0,SSW,3.5,-,N/A,,Clear,200,2014-03-11 11:53:00
8:53 AM,51.1,43.0,74,29.74,10.0,Calm,Calm,-,N/A,,Clear,0,2014-03-11 12:53:00
9:53 AM,55.9,43.0,62,29.74,10.0,Variable,3.5,-,N/A,,Clear,0,2014-03-11 13:53:00
10:53 AM,60.1,44.1,55,29.74,10.0,Variable,5.8,-,N/A,,Clear,0,2014-03-11 14:53:00
11:53 AM,62.1,44.1,52,29.72,10.0,West,5.8,-,N/A,,Clear,260,2014-03-11 15:53:00
12:53 PM,63.0,44.1,50,29.70,10.0,WSW,5.8,-,N/A,,Clear,250,2014-03-11 16:53:00
1:53 PM,66.9,44.1,44,29.68,10.0,WSW,6.9,-,N/A,,Clear,250,2014-03-11 17:53:00
2:53 PM,71.1,44.1,38,29.64,10.0,WSW,9.2,-,N/A,,Clear,250,2014-03-11 18:53:00
3:53 PM,75.0,41.0,29,29.62,10.0,SW,6.9,-,N/A,,Clear,230,2014-03-11 19:53:00
4:53 PM,75.0,41.0,29,29.61,10.0,SW,6.9,-,N/A,,Clear,230,2014-03-11 20:53:00
5:53 PM,73.9,37.9,27,29.59,10.0,WSW,9.2,-,N/A,,Clear,250,2014-03-11 21:53:00
6:53 PM,71.1,39.0,31,29.58,10.0,WSW,5.8,-,N/A,,Clear,240,2014-03-11 22:53:00
7:53 PM,60.1,39.0,46,29.60,10.0,Calm,Calm,-,N/A,,Clear,0,2014-03-11 23:53:00
8:53 PM,53.1,39.0,59,29.61,10.0,Calm,Calm,-,N/A,,Clear,0,2014-03-12 00:53:00
9:53 PM,57.0,41.0,55,29.61,10.0,Calm,Calm,-,N/A,,Mostly Cloudy,0,2014-03-12 01:53:00
10:53 PM,54.0,44.1,69,29.60,10.0,Calm,Calm,-,N/A,,Overcast,0,2014-03-12 02:53:00
11:53 PM,57.9,41.0,53,29.60,10.0,South,3.5,-,0.00,Rain,Light Rain,190,2014-03-12 03:53:00